ZHONGXING-2A

Last updated on Sun Apr 12 2026 00:02:52 GMT+0000 (Coordinated Universal Time)

1 38352U 12028A 26101.39756317 -.00000290 00000+0 00000+0 0 9995 2 38352 1.2804 84.7290 0001428 352.5607 3.6920 1.00268914 50625
UTC large
Height (km)
Speed (km/s)
/
Latitude / Longitude
Inclination (degrees)
Orbital Period (minutes)
Azimuth
Elevation
Range (km)
Doppler Factor

Next 0 passes for location: London (51.5072 / 0.1276)

Sorry there are no passes over London.
ZHONGXING-2A